When you browse on this site, cookies collect data to enhance your experience and personalize the content and advertising you see.
Visit our Privacy Policy to learn more. By continuing to use the site, you agree to this use of cookies and data.
  • In Latvia
  • List of Countries
  • For 7 days
  • Water Temperature
  • Satellite Maps
  • Weather Map
  • Weather Widgets
  • user-avatar
    Login

    Hourly Weather Arkadia

    Today, 11 December, Tuesday

    Time Temperature Precipitation Wind Pressure Humidity
    00:00 +3°C° 0.2 mm 1 mps 660 mmHg 86%
    01:00 +4°C° 0 mm 1 mps 659 mmHg 86%
    02:00 +4°C° 0.6 mm 1 mps 659 mmHg 85%
    03:00 +4°C° 0.6 mm 1 mps 659 mmHg 84%
    04:00 +4°C° 0.6 mm 1 mps 660 mmHg 83%
    05:00 +4°C° 0.5 mm 1 mps 660 mmHg 84%
    06:00 +3°C° 0.5 mm 1 mps 660 mmHg 85%
    07:00 +3°C° 0.5 mm 1 mps 660 mmHg 86%
    08:00 +4°C° 0.4 mm 1 mps 660 mmHg 83%
    09:00 +4°C° 0.4 mm 1 mps 661 mmHg 80%
    10:00 +5°C° 0.4 mm 1 mps 661 mmHg 76%
    11:00 +5°C° 0.8 mm 1 mps 661 mmHg 77%
    12:00 +4°C° 0.8 mm 2 mps 661 mmHg 78%
    13:00 +4°C° 0.8 mm 2 mps 661 mmHg 79%
    14:00 +3°C° 0.7 mm 2 mps 661 mmHg 82%
    15:00 +3°C° 0.7 mm 2 mps 661 mmHg 85%
    16:00 +2°C° 0.7 mm 2 mps 661 mmHg 88%
    17:00 +2°C° 0.2 mm 2 mps 661 mmHg 89%
    18:00 +2°C° 0.2 mm 1 mps 661 mmHg 89%
    19:00 +2°C° 0.2 mm 1 mps 661 mmHg 90%
    20:00 +1°C° 0 mm 1 mps 662 mmHg 90%
    21:00 +1°C° 0 mm 1 mps 662 mmHg 89%
    22:00 +1°C° 0 mm 1 mps 662 mmHg 89%
    23:00 0°C° 0 mm 1 mps 662 mmHg 89%

    Tomorrow, 12 December, Wednesday

    Time Temperature Precipitation Wind Pressure Humidity
    00:00 0°C° 0 mm 1 mps 662 mmHg 89%
    01:00 0°C° 0 mm 1 mps 663 mmHg 88%
    02:00 0°C° 0 mm 1 mps 663 mmHg 88%
    03:00 0°C° 0 mm 1 mps 663 mmHg 87%
    04:00 -1°C° 0 mm 1 mps 663 mmHg 87%
    05:00 -1°C° 0 mm 1 mps 663 mmHg 86%
    06:00 -1°C° 0 mm 1 mps 663 mmHg 86%
    07:00 -1°C° 0 mm 1 mps 664 mmHg 85%
    08:00 +1°C° 0 mm 1 mps 664 mmHg 77%
    09:00 +3°C° 0 mm 1 mps 665 mmHg 70%
    10:00 +4°C° 0 mm 1 mps 666 mmHg 62%
    11:00 +5°C° 0 mm 1 mps 666 mmHg 60%
    12:00 +5°C° 0 mm 1 mps 666 mmHg 57%
    13:00 +6°C° 0 mm 1 mps 666 mmHg 55%
    14:00 +5°C° 0 mm 1 mps 666 mmHg 59%
    15:00 +4°C° 0 mm 1 mps 665 mmHg 63%
    16:00 +3°C° 0 mm 1 mps 665 mmHg 68%
    17:00 +2°C° 0 mm 1 mps 665 mmHg 70%
    18:00 +2°C° 0 mm 1 mps 665 mmHg 73%
    19:00 +1°C° 0 mm 1 mps 665 mmHg 76%
    20:00 +1°C° 0 mm 1 mps 665 mmHg 76%
    21:00 +1°C° 0 mm 1 mps 665 mmHg 76%
    22:00 0°C° 0 mm 1 mps 665 mmHg 76%
    23:00 +1°C° 0 mm 1 mps 665 mmHg 75%

    Day after tomorrow, 13 December, Thursday

    Time Temperature Precipitation Wind Pressure Humidity
    00:00 +1°C° 0 mm 1 mps 665 mmHg 73%
    01:00 +1°C° 0 mm 1 mps 665 mmHg 72%
    02:00 +2°C° 0.1 mm 1 mps 665 mmHg 71%
    03:00 +2°C° 0.1 mm 1 mps 664 mmHg 70%
    04:00 +2°C° 0.1 mm 1 mps 664 mmHg 69%
    05:00 +2°C° 0.3 mm 1 mps 664 mmHg 72%
    06:00 +1°C° 0.3 mm 2 mps 664 mmHg 75%
    07:00 +1°C° 0.3 mm 2 mps 664 mmHg 78%
    08:00 +1°C° 2 mm 2 mps 664 mmHg 82%
    09:00 +1°C° 2 mm 2 mps 663 mmHg 85%
    10:00 +1°C° 2 mm 2 mps 663 mmHg 89%
    11:00 +1°C° 1.4 mm 2 mps 663 mmHg 90%
    12:00 +2°C° 1.4 mm 2 mps 662 mmHg 90%
    13:00 +2°C° 1.4 mm 2 mps 662 mmHg 90%
    14:00 +3°C° 0.1 mm 1 mps 662 mmHg 90%
    15:00 +3°C° 0.1 mm 1 mps 662 mmHg 91%
    16:00 +4°C° 0.1 mm 1 mps 662 mmHg 91%
    17:00 +4°C° 0 mm 1 mps 662 mmHg 92%
    18:00 +3°C° 0 mm 1 mps 662 mmHg 93%
    19:00 +3°C° 0 mm 1 mps 662 mmHg 94%
    20:00 +4°C° 0.1 mm 1 mps 663 mmHg 94%
    21:00 +4°C° 0.1 mm 1 mps 663 mmHg 94%
    22:00 +4°C° 0.1 mm 1 mps 663 mmHg 94%
    23:00 +4°C° 0.6 mm 1 mps 663 mmHg 94%

    14 December, Friday

    Time Temperature Precipitation Wind Pressure Humidity
    00:00 +4°C° 0.6 mm 1 mps 663 mmHg 94%
    01:00 +4°C° 0.6 mm 1 mps 663 mmHg 94%
    02:00 +4°C° 0.6 mm 1 mps 663 mmHg 95%
    03:00 +4°C° 0.6 mm 1 mps 663 mmHg 95%
    04:00 +4°C° 0.6 mm 1 mps 663 mmHg 95%
    05:00 +4°C° 0.2 mm 1 mps 663 mmHg 95%
    06:00 +4°C° 0.2 mm 1 mps 663 mmHg 95%
    07:00 +4°C° 0.2 mm 1 mps 663 mmHg 95%
    08:00 +5°C° 0.1 mm 1 mps 664 mmHg 91%
    09:00 +7°C° 0.1 mm 1 mps 665 mmHg 88%
    10:00 +8°C° 0.1 mm 1 mps 665 mmHg 85%
    11:00 +8°C° 0 mm 2 mps 665 mmHg 82%
    12:00 +8°C° 0 mm 2 mps 665 mmHg 80%
    13:00 +9°C° 0 mm 2 mps 665 mmHg 77%
    14:00 +8°C° 0 mm 2 mps 664 mmHg 81%
    15:00 +7°C° 0 mm 2 mps 664 mmHg 85%
    16:00 +6°C° 0 mm 2 mps 664 mmHg 89%
    17:00 +6°C° 0 mm 2 mps 664 mmHg 91%
    18:00 +5°C° 0 mm 2 mps 664 mmHg 92%
    19:00 +5°C° 0 mm 2 mps 664 mmHg 93%
    20:00 +5°C° 0 mm 2 mps 664 mmHg 94%
    21:00 +4°C° 0 mm 2 mps 664 mmHg 94%
    22:00 +4°C° 0 mm 2 mps 664 mmHg 94%
    23:00 +4°C° 0 mm 2 mps 663 mmHg 94%

    15 December, Saturday

    Time Temperature Precipitation Wind Pressure Humidity
    00:00 +4°C° 0 mm 2 mps 663 mmHg 94%
    01:00 +4°C° 0 mm 2 mps 662 mmHg 94%
    02:00 +4°C° 0 mm 2 mps 662 mmHg 93%
    03:00 +4°C° 0 mm 2 mps 662 mmHg 93%
    04:00 +4°C° 0 mm 2 mps 662 mmHg 92%
    05:00 +4°C° 0.1 mm 2 mps 662 mmHg 92%
    06:00 +4°C° 0.1 mm 2 mps 661 mmHg 92%
    07:00 +4°C° 0.1 mm 2 mps 661 mmHg 92%
    08:00 +5°C° 0.2 mm 2 mps 662 mmHg 88%
    09:00 +6°C° 0.2 mm 2 mps 662 mmHg 84%
    10:00 +7°C° 0.2 mm 2 mps 662 mmHg 81%
    11:00 +8°C° 0.2 mm 2 mps 662 mmHg 78%
    12:00 +8°C° 0.2 mm 2 mps 661 mmHg 76%
    13:00 +8°C° 0.2 mm 2 mps 661 mmHg 74%
    14:00 +8°C° 0.6 mm 2 mps 661 mmHg 78%
    15:00 +7°C° 0.6 mm 2 mps 660 mmHg 81%
    16:00 +6°C° 0.6 mm 2 mps 660 mmHg 85%
    17:00 +6°C° 0.7 mm 2 mps 660 mmHg 87%
    18:00 +6°C° 0.7 mm 2 mps 660 mmHg 88%
    19:00 +5°C° 0.7 mm 2 mps 660 mmHg 90%
    20:00 +5°C° 0.6 mm 2 mps 660 mmHg 91%
    21:00 +5°C° 0.6 mm 2 mps 660 mmHg 91%
    22:00 +5°C° 0.6 mm 2 mps 660 mmHg 92%
    23:00 +5°C° 0.3 mm 2 mps 660 mmHg 92%

    16 December, Sunday

    Time Temperature Precipitation Wind Pressure Humidity
    00:00 +5°C° 0.3 mm 2 mps 660 mmHg 92%
    01:00 +4°C° 0.3 mm 2 mps 660 mmHg 92%
    02:00 +4°C° 0.2 mm 2 mps 660 mmHg 92%
    03:00 +4°C° 0.2 mm 2 mps 660 mmHg 92%
    04:00 +4°C° 0.2 mm 2 mps 660 mmHg 92%
    05:00 +4°C° 0 mm 2 mps 660 mmHg 92%
    06:00 +4°C° 0 mm 2 mps 660 mmHg 92%
    07:00 +3°C° 0 mm 2 mps 660 mmHg 92%
    08:00 +5°C° 0 mm 2 mps 661 mmHg 87%
    09:00 +6°C° 0 mm 2 mps 662 mmHg 83%
    10:00 +7°C° 0 mm 2 mps 662 mmHg 78%
    11:00 +8°C° 0.1 mm 2 mps 662 mmHg 76%
    12:00 +8°C° 0.1 mm 2 mps 662 mmHg 74%
    13:00 +8°C° 0.1 mm 2 mps 662 mmHg 72%
    14:00 +8°C° 0.1 mm 2 mps 662 mmHg 76%
    15:00 +7°C° 0.1 mm 2 mps 662 mmHg 80%
    16:00 +6°C° 0.1 mm 2 mps 663 mmHg 84%
    17:00 +5°C° 0 mm 2 mps 663 mmHg 86%
    18:00 +5°C° 0 mm 2 mps 663 mmHg 88%
    19:00 +4°C° 0 mm 2 mps 664 mmHg 90%
    20:00 +4°C° 0 mm 2 mps 664 mmHg 90%
    21:00 +4°C° 0 mm 2 mps 664 mmHg 90%
    22:00 +4°C° 0 mm 2 mps 665 mmHg 90%
    23:00 +4°C° 0 mm 2 mps 665 mmHg 91%
    Show more